Home > Weather > Pretoria > Past weeks

Flag for South Africa Weather for the Past 2 Weeks in Pretoria, South Africa

Now
64 °F

Mild.


Feels Like: 64 °F
Forecast: 65 / 84 °F
Wind: 9 mph from North

Location: Waterkloof Lmb

Current Time: Feb 9, 2016 at 2:08:29 AM

Latest Report: Feb 9, 2016 at 1:00 AM


Visibility: N/A

Pressure: 30.18 "Hg (25.79 "Hg at 1338m altitude)

Humidity: 73%

Dew point: 55 °F

Location of PretoriaLocation

Historic Weather in Pretoria — Graph

°F

Pretoria Temperature Yesterday

Maximum temperature yesterday: 84 °F (at 11:00 AM)
Minimum temperature yesterday: 63 °F (at 5:00 AM)
Average temperature yesterday: 71 °F

High & Low Weather Summary for the Past Weeks

 TemperatureHumidityPressure
High88 °F (Jan 30, 4:00 PM)94% (Jan 25, 4:00 AM)30.39 "Hg (Jan 25, 4:00 AM)
Low61 °F (Jan 31, 6:00 AM)16% (Jan 30, 5:00 PM)30.01 "Hg (Jan 25, 3:00 PM)
Average74 °F53%30.18 "Hg
* Reported Midnight between Jan 24 and Jan 25 — Midnight between Feb 8 and Feb 9, Pretoria, Weather by CustomWeather, © 2016

Note: Actual official high and low records may vary slightly from our data, if they occured in-between our weather recording intervals... More about our weather records

Advertising

Pretoria Weather History for the Previous 24 Hours

 ConditionsComfort  
Time TempWeatherWind HumidityBarometerVisibility
12:00 AM
Tue, Feb 9
66 °FMild.10 mph60%30.18 "HgN/A
11:00 PM
Mon, Feb 8
63 °FMild.17 mph83%30.21 "HgN/A
10:00 PM64 °FMild.8 mph68%30.27 "HgN/A
9:00 PM66 °FMild.6 mph68%30.18 "HgN/A
8:00 PM64 °FMild.10 mph78%30.18 "HgN/A
7:00 PM66 °FMild.9 mph64%30.18 "HgN/A
6:00 PM79 °FPleasantly warm.5 mph37%30.15 "HgN/A
5:00 PM84 °FPleasantly warm.9 mph40%30.12 "HgN/A
4:00 PM84 °FPleasantly warm.6 mph40%30.12 "HgN/A
3:00 PM84 °FPleasantly warm.8 mph40%30.15 "HgN/A
2:00 PM81 °FWarm.6 mph48%30.18 "HgN/A
1:00 PM81 °FWarm.9 mph48%30.21 "HgN/A
12:00 PM79 °FWarm.7 mph51%30.21 "HgN/A
11:00 AM84 °FWarm.9 mph43%30.24 "HgN/A
10:00 AM72 °FPartly sunny.12 mphN/A30.30 "HgN/A
9:00 AM70 °FMild.8 mph69%30.24 "HgN/A
8:00 AM68 °FMild.8 mph69%30.21 "HgN/A
7:00 AM64 °FMild.7 mph78%30.21 "HgN/A
6:00 AM63 °FMild.7 mph83%30.18 "HgN/A
5:00 AM63 °FMild.7 mph83%30.15 "HgN/A
4:00 AM64 °FMild.8 mph83%30.15 "HgN/A
3:00 AM64 °FMild.7 mph83%30.15 "HgN/A
2:00 AM66 °FMild.8 mph78%30.15 "HgN/A
Weather by CustomWeather, © 2016

See weather overviewHow to use our weather pages